| time (UTC) | temp F | wind direction | speed MPH | gust MPH | rain 1hr in | rain 24hr in | rain mn in | humidity % | barometer mb |
| 20260506011539 | 80 | 85 | 1.0 | 2.0 | 0.00 | 0.00 | 0.00 | 55 | 1006.3 |
| 20260506010043 | 84 | 181 | 0.0 | 0.0 | 0.00 | 0.00 | 0.00 | 50 | 1006.0 |
| 20260506004545 | 88 | 180 | 1.0 | 2.0 | 0.00 | 0.00 | 0.00 | 43 | 1005.7 |
| 20260506003039 | 92 | 0 | 0.0 | 2.0 | 0.00 | 0.00 | 0.00 | 41 | 1005.8 |
| 20260506001536 | 92 | 202 | 1.0 | 3.0 | 0.00 | 0.00 | 0.00 | 37 | 1005.8 |
| 20260506000033 | 95 | 197 | 1.0 | 3.0 | 0.00 | 0.00 | 0.00 | 35 | 1006.0 |
| 20260505234538 | 97 | 0 | 0.0 | 2.0 | 0.00 | 0.00 | 0.00 | 33 | 1006.0 |
| 20260505233035 | 93 | 232 | 0.0 | 3.0 | 0.00 | 0.00 | 0.00 | 38 | 1006.0 |
| 20260505231533 | 89 | 281 | 0.0 | 4.0 | 0.00 | 0.00 | 0.00 | 39 | 1006.0 |
| 20260505230045 | 91 | 260 | 1.0 | 4.0 | 0.00 | 0.00 | 0.00 | 39 | 1005.9 |
| 20260505224537 | 90 | 274 | 2.0 | 7.0 | 0.00 | 0.00 | 0.00 | 36 | 1006.2 |
| 20260505223036 | 90 | 297 | 3.0 | 8.0 | 0.00 | 0.00 | 0.00 | 35 | 1006.3 |
| 20260505221533 | 90 | 268 | 3.0 | 7.0 | 0.00 | 0.00 | 0.00 | 36 | 1006.0 |
| 20260505220040 | 91 | 268 | 6.0 | 10.0 | 0.00 | 0.00 | 0.00 | 35 | 1006.3 |
| 20260505214535 | 91 | 315 | 5.0 | 11.0 | 0.00 | 0.00 | 0.00 | 37 | 1006.4 |
| 20260505213043 | 91 | 267 | 3.0 | 9.0 | 0.00 | 0.00 | 0.00 | 35 | 1006.3 |
| 20260505211542 | 90 | 278 | 4.0 | 10.0 | 0.00 | 0.00 | 0.00 | 38 | 1006.3 |
| 20260505210033 | 90 | 279 | 3.0 | 8.0 | 0.00 | 0.00 | 0.00 | 35 | 1006.3 |
| 20260505204536 | 90 | 281 | 2.0 | 7.0 | 0.00 | 0.00 | 0.00 | 42 | 1006.5 |
| 20260505203041 | 89 | 198 | 2.0 | 9.0 | 0.00 | 0.00 | 0.00 | 43 | 1006.4 |
| 20260505201536 | 89 | 251 | 3.0 | 9.0 | 0.00 | 0.00 | 0.00 | 41 | 1006.7 |
| 20260505200037 | 88 | 300 | 4.0 | 8.0 | 0.00 | 0.00 | 0.00 | 39 | 1006.9 |
| 20260505194535 | 89 | 255 | 4.0 | 9.0 | 0.00 | 0.00 | 0.00 | 42 | 1007.0 |
| 20260505193044 | 89 | 240 | 5.0 | 8.0 | 0.00 | 0.00 | 0.00 | 42 | 1007.1 |
| 20260505191540 | 88 | 199 | 3.0 | 10.0 | 0.00 | 0.00 | 0.00 | 41 | 1007.0 |
| 20260505190040 | 87 | 278 | 3.0 | 11.0 | 0.00 | 0.00 | 0.00 | 36 | 1007.3 |
| 20260505184536 | 87 | 217 | 4.0 | 7.0 | 0.00 | 0.00 | 0.00 | 46 | 1007.3 |
| 20260505183035 | 86 | 268 | 4.0 | 10.0 | 0.00 | 0.00 | 0.00 | 49 | 1007.7 |
| 20260505181533 | 85 | 208 | 3.0 | 6.0 | 0.00 | 0.00 | 0.00 | 56 | 1008.0 |
| 20260505180043 | 85 | 237 | 3.0 | 9.0 | 0.00 | 0.00 | 0.00 | 61 | 1008.4 |
| 20260505174535 | 83 | 240 | 3.0 | 12.0 | 0.00 | 0.00 | 0.00 | 62 | 1008.4 |
| 20260505173035 | 82 | 264 | 6.0 | 12.0 | 0.00 | 0.00 | 0.00 | 64 | 1008.6 |
| 20260505171534 | 81 | 272 | 6.0 | 12.0 | 0.00 | 0.00 | 0.00 | 66 | 1008.8 |
| 20260505170038 | 80 | 200 | 7.0 | 14.0 | 0.00 | 0.00 | 0.00 | 68 | 1008.8 |
| 20260505164540 | 79 | 207 | 6.0 | 10.0 | 0.00 | 0.00 | 0.00 | 70 | 1008.8 |
| 20260505163040 | 78 | 213 | 7.0 | 12.0 | 0.00 | 0.00 | 0.00 | 73 | 1008.6 |
| 20260505161535 | 76 | 244 | 7.0 | 12.0 | 0.00 | 0.00 | 0.00 | 75 | 1008.5 |
| 20260505153042 | 74 | 255 | 8.0 | 15.0 | 0.00 | 0.00 | 0.00 | 78 | 1008.6 |
| 20260505151538 | 73 | 226 | 10.0 | 19.0 | 0.00 | 0.00 | 0.00 | 79 | 1008.7 |
| 20260505124533 | 68 | 243 | 7.0 | 11.0 | 0.00 | 0.00 | 0.00 | 88 | 1007.7 |
| 20260505123042 | 68 | 229 | 6.0 | 12.0 | 0.00 | 0.00 | 0.00 | 89 | 1007.5 |
| 20260505121537 | 67 | 216 | 5.0 | 9.0 | 0.00 | 0.00 | 0.00 | 90 | 1007.5 |
| 20260505120048 | 66 | 219 | 5.0 | 8.0 | 0.00 | 0.00 | 0.00 | 90 | 1007.1 |
| 20260505114535 | 66 | 238 | 4.0 | 7.0 | 0.00 | 0.00 | 0.00 | 90 | 1006.8 |
| 20260505113031 | 66 | 216 | 4.0 | 9.0 | 0.00 | 0.00 | 0.00 | 90 | 1006.7 |
| 20260505111536 | 66 | 214 | 4.0 | 6.0 | 0.00 | 0.00 | 0.00 | 89 | 1006.7 |
| 20260505101537 | 66 | 235 | 4.0 | 8.0 | 0.00 | 0.00 | 0.00 | 88 | 1006.7 |
| 20260505100037 | 66 | 237 | 3.0 | 6.0 | 0.00 | 0.00 | 0.00 | 88 | 1006.7 |
| 20260505094630 | 66 | 220 | 3.0 | 6.0 | 0.00 | 0.00 | 0.00 | 88 | 1007.0 |
| 20260505093032 | 66 | 230 | 3.0 | 7.0 | 0.00 | 0.00 | 0.00 | 87 | 1007.1 |
| 20260505091537 | 65 | 219 | 3.0 | 5.0 | 0.00 | 0.00 | 0.00 | 88 | 1007.1 |
| 20260505090035 | 65 | 222 | 1.0 | 3.0 | 0.00 | 0.00 | 0.00 | 88 | 1007.2 |
| 20260505084552 | 65 | 224 | 1.0 | 3.0 | 0.00 | 0.00 | 0.00 | 87 | 1007.3 |
| 20260505083057 | 66 | 236 | 1.0 | 4.0 | 0.00 | 0.00 | 0.00 | 86 | 1007.4 |
| 20260505081552 | 66 | 215 | 1.0 | 5.0 | 0.00 | 0.00 | 0.00 | 85 | 1007.5 |
| 20260505080043 | 67 | 234 | 3.0 | 7.0 | 0.00 | 0.00 | 0.00 | 84 | 1007.6 |
| 20260505074535 | 67 | 198 | 3.0 | 6.0 | 0.00 | 0.00 | 0.00 | 84 | 1007.7 |
| 20260505073048 | 67 | 211 | 2.0 | 6.0 | 0.00 | 0.00 | 0.00 | 84 | 1008.0 |
| 20260505071545 | 67 | 194 | 1.0 | 6.0 | 0.00 | 0.00 | 0.00 | 83 | 1008.3 |
| 20260505070042 | 67 | 215 | 3.0 | 8.0 | 0.00 | 0.00 | 0.00 | 83 | 1008.2 |
| 20260505064536 | 68 | 221 | 4.0 | 9.0 | 0.00 | 0.00 | 0.00 | 82 | 1008.3 |
| 20260505063038 | 68 | 197 | 5.0 | 9.0 | 0.00 | 0.00 | 0.00 | 81 | 1008.5 |
| 20260505061538 | 68 | 212 | 2.0 | 7.0 | 0.00 | 0.00 | 0.00 | 81 | 1008.5 |
| 20260505060054 | 68 | 214 | 3.0 | 7.0 | 0.00 | 0.00 | 0.00 | 81 | 1008.6 |
| 20260505054536 | 69 | 210 | 4.0 | 7.0 | 0.00 | 0.00 | 0.00 | 80 | 1009.0 |
| 20260505053037 | 69 | 211 | 4.0 | 7.0 | 0.00 | 0.00 | 0.00 | 80 | 1008.9 |
| 20260505051534 | 69 | 221 | 3.0 | 8.0 | 0.00 | 0.00 | 0.00 | 80 | 1008.9 |
| 20260505041548 | 70 | 198 | 5.0 | 10.0 | 0.00 | 0.00 | 0.00 | 78 | 1008.9 |
| 20260505040046 | 70 | 186 | 4.0 | 9.0 | 0.00 | 0.00 | 0.00 | 78 | 1009.0 |
| 20260505034537 | 70 | 236 | 6.0 | 11.0 | 0.00 | 0.00 | 0.00 | 78 | 1009.1 |
| 20260505033034 | 70 | 201 | 3.0 | 6.0 | 0.00 | 0.00 | 0.00 | 78 | 1008.8 |
| 20260505031535 | 70 | 200 | 2.0 | 7.0 | 0.00 | 0.00 | 0.00 | 77 | 1008.9 |
| 20260505030044 | 71 | 210 | 2.0 | 7.0 | 0.00 | 0.00 | 0.00 | 76 | 1008.9 |
| 20260505024535 | 71 | 133 | 3.0 | 8.0 | 0.00 | 0.00 | 0.00 | 75 | 1008.8 |
| 20260505023036 | 72 | 214 | 4.0 | 8.0 | 0.00 | 0.00 | 0.00 | 73 | 1008.6 |
| 20260505021536 | 73 | 195 | 5.0 | 11.0 | 0.00 | 0.00 | 0.00 | 71 | 1008.2 |
| 20260505020039 | 74 | 214 | 6.0 | 11.0 | 0.00 | 0.00 | 0.00 | 68 | 1008.2 |
| 20260505014548 | 75 | 203 | 6.0 | 12.0 | 0.00 | 0.00 | 0.00 | 67 | 1008.1 |
| 20260505013047 | 75 | 207 | 5.0 | 11.0 | 0.00 | 0.00 | 0.00 | 66 | 1007.8 |